Current weather by "City, St" or "zip code"  
 

Current Conditions: Millington, Millington Municipal Airport, TN

Fair


43.0 F

Last Updated on Oct 31 2020, 1:55 am CDT
Humidity: 87%
Wind Speed: N 0.0 mph
Barometer 30.28 in
Dewpoint: 39.2 F
Visibility: 10.00 mi
Precip: --
Heat Index: NA
Wind Chill: NA
Current conditions at:

Millington, Millington Municipal Airport, TN (KNQA)

Lat: 35.35667 Lon: 89.87028

Local Radar Image active severe weather and emergency alerts image image weather storm and storm spotter reports image weather observation monitoring service image
Local
Radar
Active
Alerts
Storm Reports Obs
Monitoring

Sign-up For Email & Text Message Weather Alert Notification Services



Advertise Here

Observation History for Millington, Millington Municipal Airport, TN


Time Wind
(mph)
Vis
(mi)
Weather Precip (in) Temperature (F) Relative
Humidity
Wind
Chill
(F)
Heat
Index
(F)
Pressure
Air Dwpt altimeter
(in)
sea level
(mb)
Rmks
1:55 am CDT N 0.0 10.00 Fair -- 43.0 39.2 87% NA NA 30.28 M
12:50 am CDT N 0.0 10.00 Fair -- 43.0 39.2 87% NA NA 30.28 M
11:50 pm CDT N 0.0 10.00 Fair -- 41.0 41.0 100% NA NA 30.29 M
10:50 pm CDT NE 3.5 10.00 Fair -- 43.0 41.0 93% NA NA 30.28 M
9:50 pm CDT N 0.0 10.00 Fair -- 43.0 42.8 100% NA NA 30.28 M
8:50 pm CDT NE 3.5 10.00 Fair -- 45.0 42.8 93% NA NA 30.27 M
7:50 pm CDT NE 4.6 10.00 Fair -- 45.0 44.6 100% 43 NA 30.26 M
6:50 pm CDT NE 3.5 9.00 Fair -- 52.0 41.0 67% NA NA 30.26 M
5:50 pm CDT N 0.0 10.00 Fair -- 55.0 41.0 59% NA NA 30.25 M
4:50 pm CDT N 4.6 10.00 Fair -- 57.0 39.2 51% 57 NA 30.26 M
3:50 pm CDT NE 5.8 10.00 Fair -- 57.0 39.2 51% 56 NA 30.26 M
2:50 pm CDT N 5.8 10.00 Fair -- 57.0 37.4 48% 56 NA 30.26 M
1:50 pm CDT N 11.5 10.00 Fair -- 55.0 39.2 55% 52 NA 30.28 M
12:50 pm CDT N 4.6 G 13.8 10.00 Fair -- 54.0 39.2 58% 53 NA 30.31 M
11:50 am CDT NE 8.1 10.00 Fair -- 52.0 39.2 62% 49 NA 30.32 M
10:50 am CDT NE 8.1 10.00 Fair -- 48.0 41.0 76% 44 NA 30.33 M
9:50 am CDT N 9.2 10.00 Fair -- 45.0 41.0 87% 40 NA 30.33 M
8:50 am CDT N 5.8 10.00 Fair -- 41.0 39.2 93% 37 NA 30.30 M
7:50 am CDT N 5.8 10.00 Fair -- 37.0 37.4 100% 32 NA 30.28 M
6:50 am CDT N 5.8 10.00 Fair -- 37.0 37.4 100% 32 NA 30.25 M
5:50 am CDT N 5.8 10.00 Fair -- 39.0 37.4 93% 35 NA 30.23 M
4:55 am CDT NW 3.5 10.00 Fair -- 39.0 39.2 100% NA NA 30.21 M
3:55 am CDT NW 3.5 10.00 Fair -- 41.0 39.2 93% NA NA 30.19 M
2:55 am CDT NW 4.6 10.00 Fair -- 41.0 39.2 93% 38 NA 30.17 M

Regional Weather Observation


Eaker Air Force Base, AR (KBYH)

Clear
63.0 F

West Memphis, West Memphis Municipal Airport, AR (KAWM)

Fair
42.0 F

Blytheville, Blytheville Municipal Airport, AR (KHKA)

Fair
43.0 F

Memphis International Airport, TN (KMEM)

Fair
45.0 F

Jonesboro, Jonesboro Municipal Airport, AR (KJBR)

Fair
42.0 F

Dyersburg, Dyersburg Municipal Airport, TN (KDYR)

Fair
40.0 F